Year,Month,Day,Hour,Minute,Value (Times are PST for temperature in C)
2015,02,18,09,33,7.40
2015,02,18,09,34,7.50
2015,02,18,09,35,7.60
2015,02,18,09,36,7.80
2015,02,18,09,37,7.90
2015,02,18,09,38,8.10
2015,02,18,09,39,8.20
2015,02,18,09,40,8.30
2015,02,18,09,41,8.50
2015,02,18,09,42,8.60
2015,02,18,09,43,8.70
2015,02,18,09,44,8.80
2015,02,18,09,45,8.90
2015,02,18,09,46,9.10
2015,02,18,09,47,9.20
2015,02,18,09,48,9.20
2015,02,18,09,49,9.30
2015,02,18,09,50,9.40
2015,02,18,09,51,9.40
2015,02,18,09,52,9.40
2015,02,18,09,53,9.40
2015,02,18,09,54,9.40
2015,02,18,09,55,9.50
2015,02,18,09,56,9.50
2015,02,18,09,57,9.50
2015,02,18,09,58,9.50
2015,02,18,09,59,9.50
2015,02,18,10,00,9.50
2015,02,18,10,01,9.50
2015,02,18,10,02,9.50
2015,02,18,10,03,9.50
2015,02,18,10,04,9.50
2015,02,18,10,05,9.50
2015,02,18,10,06,9.60
2015,02,18,10,07,9.60
2015,02,18,10,08,9.70
2015,02,18,10,09,9.70
2015,02,18,10,10,9.80
2015,02,18,10,11,9.80
2015,02,18,10,12,9.70
2015,02,18,10,13,9.70
2015,02,18,10,14,9.70
2015,02,18,10,15,9.80
2015,02,18,10,16,9.80
2015,02,18,10,17,9.80
2015,02,18,10,18,9.80
2015,02,18,10,19,9.80
2015,02,18,10,20,9.80
2015,02,18,10,21,9.90
2015,02,18,10,22,9.90
2015,02,18,10,23,9.90
2015,02,18,10,24,9.90
2015,02,18,10,25,10.00
2015,02,18,10,26,10.00
2015,02,18,10,27,10.10
2015,02,18,10,28,10.10
2015,02,18,10,29,10.10
2015,02,18,10,30,10.20
2015,02,18,10,31,10.20
2015,02,18,10,32,10.20
2015,02,18,10,33,10.20
2015,02,18,10,34,10.30
2015,02,18,10,35,10.40
2015,02,18,10,36,10.50
2015,02,18,10,37,10.50
2015,02,18,10,38,10.60
2015,02,18,10,39,10.70
2015,02,18,10,40,10.70
2015,02,18,10,41,10.70
2015,02,18,10,42,10.80
2015,02,18,10,43,10.80
2015,02,18,10,44,10.80
2015,02,18,10,45,10.80
2015,02,18,10,46,10.80
2015,02,18,10,47,10.80
2015,02,18,10,48,10.70
2015,02,18,10,49,10.60
2015,02,18,10,50,10.60
2015,02,18,10,51,10.50
2015,02,18,10,52,10.50
2015,02,18,10,53,10.50
2015,02,18,10,54,10.60
2015,02,18,10,55,10.60
2015,02,18,10,56,10.60
2015,02,18,10,57,10.60
2015,02,18,10,58,10.60
2015,02,18,10,59,10.50
2015,02,18,11,00,10.60
2015,02,18,11,01,10.60
2015,02,18,11,02,10.60
2015,02,18,11,03,10.60
2015,02,18,11,04,10.60
2015,02,18,11,05,10.50
2015,02,18,11,06,10.50
2015,02,18,11,07,10.40
2015,02,18,11,08,10.30
2015,02,18,11,09,10.30
2015,02,18,11,10,10.30
2015,02,18,11,11,10.20
2015,02,18,11,12,10.30
2015,02,18,11,13,10.30
2015,02,18,11,14,10.30
2015,02,18,11,15,10.40
2015,02,18,11,16,10.40
2015,02,18,11,17,10.40
2015,02,18,11,18,10.30
2015,02,18,11,19,10.30
2015,02,18,11,20,10.20
2015,02,18,11,21,10.20
2015,02,18,11,22,10.20
2015,02,18,11,23,10.10
2015,02,18,11,24,10.10
2015,02,18,11,25,10.10
2015,02,18,11,26,10.10
2015,02,18,11,27,10.10
2015,02,18,11,28,10.10
2015,02,18,11,29,10.20
2015,02,18,11,30,10.30
2015,02,18,11,31,10.40
2015,02,18,11,32,10.50
2015,02,18,11,33,10.70
2015,02,18,11,34,10.70
2015,02,18,11,35,10.70
2015,02,18,11,36,10.60
2015,02,18,11,37,10.60
2015,02,18,11,38,10.60
2015,02,18,11,39,10.60
2015,02,18,11,40,10.60
2015,02,18,11,41,10.50
2015,02,18,11,42,10.50
2015,02,18,11,43,10.40
2015,02,18,11,44,10.40
2015,02,18,11,45,10.40
2015,02,18,11,46,10.30
2015,02,18,11,47,10.30
2015,02,18,11,48,10.40
2015,02,18,11,49,10.50
2015,02,18,11,50,10.50
2015,02,18,11,51,10.60
2015,02,18,11,52,10.60
2015,02,18,11,53,10.50
2015,02,18,11,54,10.40
2015,02,18,11,55,10.40
2015,02,18,11,56,10.40
2015,02,18,11,57,10.40
2015,02,18,11,58,10.40
2015,02,18,11,59,10.40
2015,02,18,12,00,10.50
2015,02,18,12,01,10.50
2015,02,18,12,02,10.60
2015,02,18,12,03,10.60
2015,02,18,12,04,10.60
2015,02,18,12,05,10.60
2015,02,18,12,06,10.70
2015,02,18,12,07,10.70
2015,02,18,12,08,10.70
2015,02,18,12,09,10.70
2015,02,18,12,10,10.80
2015,02,18,12,11,10.90
2015,02,18,12,12,11.00
2015,02,18,12,13,11.00
2015,02,18,12,14,11.00
2015,02,18,12,15,10.90
2015,02,18,12,16,10.80
2015,02,18,12,17,10.70
2015,02,18,12,18,10.70
2015,02,18,12,19,10.70
2015,02,18,12,20,10.70
2015,02,18,12,21,10.80
2015,02,18,12,22,10.80
2015,02,18,12,23,10.90
2015,02,18,12,24,10.90
2015,02,18,12,25,10.90
2015,02,18,12,26,10.90
2015,02,18,12,27,10.90
2015,02,18,12,28,10.90
2015,02,18,12,29,10.90
2015,02,18,12,30,10.90
2015,02,18,12,31,10.90
2015,02,18,12,32,10.90
2015,02,18,12,33,10.90
2015,02,18,12,34,10.90
2015,02,18,12,35,11.00
2015,02,18,12,36,11.00
2015,02,18,12,37,11.10
2015,02,18,12,38,11.10
2015,02,18,12,39,11.10
2015,02,18,12,40,11.00
2015,02,18,12,41,11.00
2015,02,18,12,42,10.90
2015,02,18,12,43,10.90
2015,02,18,12,44,10.80
2015,02,18,12,45,10.80
2015,02,18,12,46,10.70
2015,02,18,12,47,10.70
2015,02,18,12,48,10.60
2015,02,18,12,49,10.60
2015,02,18,12,50,10.60
2015,02,18,12,51,10.60
2015,02,18,12,52,10.60
2015,02,18,12,53,10.60
2015,02,18,12,54,10.60
2015,02,18,12,55,10.60
2015,02,18,12,56,10.60
2015,02,18,12,57,10.50
2015,02,18,12,58,10.50
2015,02,18,12,59,10.40
2015,02,18,13,00,10.40
2015,02,18,13,01,10.40
2015,02,18,13,02,10.30
2015,02,18,13,03,10.30
2015,02,18,13,04,10.30
2015,02,18,13,05,10.30
2015,02,18,13,06,10.30
2015,02,18,13,07,10.30
2015,02,18,13,08,10.30
2015,02,18,13,09,10.30
2015,02,18,13,10,10.20
2015,02,18,13,11,10.20
2015,02,18,13,12,10.20
2015,02,18,13,13,10.20
2015,02,18,13,14,10.20
2015,02,18,13,15,10.20
2015,02,18,13,16,10.20
2015,02,18,13,17,10.20
2015,02,18,13,18,10.20
2015,02,18,13,19,10.20
2015,02,18,13,20,10.20
2015,02,18,13,21,10.20
2015,02,18,13,22,10.10
2015,02,18,13,23,10.10
2015,02,18,13,24,10.10
2015,02,18,13,25,10.10
2015,02,18,13,26,10.10
2015,02,18,13,27,10.00
2015,02,18,13,28,10.00
2015,02,18,13,29,10.00
2015,02,18,13,30,10.00
2015,02,18,13,31,10.00
2015,02,18,13,32,10.00
2015,02,18,13,33,10.00
2015,02,18,13,34,10.00
2015,02,18,13,35,10.00
2015,02,18,13,36,10.00
2015,02,18,13,37,10.00
2015,02,18,13,38,10.00
2015,02,18,13,39,10.00
2015,02,18,13,40,10.00
2015,02,18,13,41,9.90
2015,02,18,13,42,9.90
2015,02,18,13,43,9.90
2015,02,18,13,44,9.90
2015,02,18,13,45,9.90
2015,02,18,13,46,9.90
2015,02,18,13,47,9.90
2015,02,18,13,48,9.90
2015,02,18,13,49,9.90
2015,02,18,13,50,9.90
2015,02,18,13,51,10.00
2015,02,18,13,52,10.00
2015,02,18,13,53,10.00
2015,02,18,13,54,10.00
2015,02,18,13,55,10.00
2015,02,18,13,56,10.00
2015,02,18,13,57,10.10
2015,02,18,13,58,10.10
2015,02,18,13,59,10.20
2015,02,18,14,00,10.20
2015,02,18,14,01,10.30
2015,02,18,14,02,10.40
2015,02,18,14,03,10.40
2015,02,18,14,04,10.50
2015,02,18,14,05,10.50
2015,02,18,14,06,10.60
2015,02,18,14,07,10.70
2015,02,18,14,08,10.70
2015,02,18,14,09,10.70
2015,02,18,14,10,10.80
2015,02,18,14,11,10.80
2015,02,18,14,12,10.80
2015,02,18,14,13,10.90
2015,02,18,14,14,10.90
2015,02,18,14,15,10.90
2015,02,18,14,16,10.90
2015,02,18,14,17,10.90
2015,02,18,14,18,10.90
2015,02,18,14,19,10.90
2015,02,18,14,20,10.90
2015,02,18,14,21,10.90
2015,02,18,14,22,10.80
2015,02,18,14,23,10.80
2015,02,18,14,24,10.80
2015,02,18,14,25,10.80
2015,02,18,14,26,10.80
2015,02,18,14,27,10.70
2015,02,18,14,28,10.70
2015,02,18,14,29,10.70
2015,02,18,14,30,10.70
2015,02,18,14,31,10.70
2015,02,18,14,32,10.70
2015,02,18,14,33,10.70
2015,02,18,14,34,10.80
2015,02,18,14,35,10.80
2015,02,18,14,36,10.80
2015,02,18,14,37,10.80
2015,02,18,14,38,10.80
2015,02,18,14,39,10.70
2015,02,18,14,40,10.70
2015,02,18,14,41,10.60
2015,02,18,14,42,10.60
2015,02,18,14,43,10.60
2015,02,18,14,44,10.50
2015,02,18,14,45,10.40
2015,02,18,14,46,10.40
2015,02,18,14,47,10.40
2015,02,18,14,48,10.50
2015,02,18,14,49,10.50
2015,02,18,14,50,10.50
2015,02,18,14,51,10.60
2015,02,18,14,52,10.60
2015,02,18,14,53,10.70
2015,02,18,14,54,10.70
2015,02,18,14,55,10.70
2015,02,18,14,56,10.80
2015,02,18,14,57,10.80
2015,02,18,14,58,10.80
2015,02,18,14,59,10.80
2015,02,18,15,00,10.80
2015,02,18,15,01,10.80
2015,02,18,15,02,10.80
2015,02,18,15,03,10.70
2015,02,18,15,04,10.70
2015,02,18,15,05,10.70
2015,02,18,15,06,10.70
2015,02,18,15,07,10.70
2015,02,18,15,08,10.70
2015,02,18,15,09,10.70
2015,02,18,15,10,10.80
2015,02,18,15,11,10.80
2015,02,18,15,12,10.80
2015,02,18,15,13,10.80
2015,02,18,15,14,10.80
2015,02,18,15,15,10.80
2015,02,18,15,16,10.80
2015,02,18,15,17,10.80
2015,02,18,15,18,10.80
2015,02,18,15,19,10.80
2015,02,18,15,20,10.70
2015,02,18,15,21,10.70
2015,02,18,15,22,10.70
2015,02,18,15,23,10.70
2015,02,18,15,24,10.70
2015,02,18,15,25,10.70
2015,02,18,15,26,10.70
2015,02,18,15,27,10.70
2015,02,18,15,28,10.70
2015,02,18,15,29,10.70
2015,02,18,15,30,10.70
2015,02,18,15,31,10.70
2015,02,18,15,32,10.70
2015,02,18,15,33,10.70
2015,02,18,15,34,10.70
2015,02,18,15,35,10.70
2015,02,18,15,36,10.80
2015,02,18,15,37,10.80
2015,02,18,15,38,10.80
2015,02,18,15,39,10.80
2015,02,18,15,40,10.80
2015,02,18,15,41,10.80
2015,02,18,15,42,10.80
2015,02,18,15,43,10.80
2015,02,18,15,44,10.80
2015,02,18,15,45,10.80
2015,02,18,15,46,10.80
2015,02,18,15,47,10.70
2015,02,18,15,48,10.70
2015,02,18,15,49,10.70
2015,02,18,15,50,10.70
2015,02,18,15,51,10.70
2015,02,18,15,52,10.70
2015,02,18,15,53,10.70
2015,02,18,15,54,10.70
2015,02,18,15,55,10.70
2015,02,18,15,56,10.70
2015,02,18,15,57,10.70
2015,02,18,15,58,10.60
2015,02,18,15,59,10.60
2015,02,18,16,00,10.60
2015,02,18,16,01,10.60
2015,02,18,16,02,10.60
2015,02,18,16,03,10.50
2015,02,18,16,04,10.50
2015,02,18,16,05,10.40
2015,02,18,16,06,10.40
2015,02,18,16,07,10.40
2015,02,18,16,08,10.30
2015,02,18,16,09,10.30
2015,02,18,16,10,10.30
2015,02,18,16,11,10.30
2015,02,18,16,12,10.30
2015,02,18,16,13,10.30
2015,02,18,16,14,10.20
2015,02,18,16,15,10.20
2015,02,18,16,16,10.20
2015,02,18,16,17,10.20
2015,02,18,16,18,10.20
2015,02,18,16,19,10.20
2015,02,18,16,20,10.20
2015,02,18,16,21,10.20
2015,02,18,16,22,10.20
2015,02,18,16,23,10.30
2015,02,18,16,24,10.30
2015,02,18,16,25,10.30
2015,02,18,16,26,10.30
2015,02,18,16,27,10.30
2015,02,18,16,28,10.30
2015,02,18,16,29,10.30
2015,02,18,16,30,10.30
2015,02,18,16,31,10.30
2015,02,18,16,32,10.30
2015,02,18,16,33,10.30
2015,02,18,16,34,10.30
2015,02,18,16,35,10.30
2015,02,18,16,36,10.30
2015,02,18,16,37,10.30
2015,02,18,16,38,10.30
2015,02,18,16,39,10.30
2015,02,18,16,40,10.30
2015,02,18,16,41,10.30
2015,02,18,16,42,10.30
2015,02,18,16,43,10.30
2015,02,18,16,44,10.30
2015,02,18,16,45,10.30
2015,02,18,16,46,10.30
2015,02,18,16,47,10.30
2015,02,18,16,48,10.30
2015,02,18,16,49,10.30
2015,02,18,16,50,10.30
2015,02,18,16,51,10.30
2015,02,18,16,52,10.20
2015,02,18,16,53,10.20
2015,02,18,16,54,10.20
2015,02,18,16,55,10.10
2015,02,18,16,56,10.10
2015,02,18,16,57,10.00
2015,02,18,16,58,10.00
2015,02,18,16,59,9.90
2015,02,18,17,00,9.90
2015,02,18,17,01,9.90
2015,02,18,17,02,9.80
2015,02,18,17,03,9.80
2015,02,18,17,04,9.80
2015,02,18,17,05,9.80
2015,02,18,17,06,9.80
2015,02,18,17,07,9.80
2015,02,18,17,08,9.80
2015,02,18,17,09,9.70
2015,02,18,17,10,9.70
2015,02,18,17,11,9.70
2015,02,18,17,12,9.70
2015,02,18,17,13,9.70
2015,02,18,17,14,9.70
2015,02,18,17,15,9.70
2015,02,18,17,16,9.70
2015,02,18,17,17,9.70
2015,02,18,17,18,9.70
2015,02,18,17,19,9.70
2015,02,18,17,20,9.70
2015,02,18,17,21,9.70
2015,02,18,17,22,9.70
2015,02,18,17,23,9.70
2015,02,18,17,24,9.70
2015,02,18,17,25,9.70
2015,02,18,17,26,9.70
2015,02,18,17,27,9.70
2015,02,18,17,28,9.70
2015,02,18,17,29,9.70
2015,02,18,17,30,9.70
2015,02,18,17,31,9.70
2015,02,18,17,32,9.70
2015,02,18,17,33,9.70
2015,02,18,17,34,9.70
2015,02,18,17,35,9.70
2015,02,18,17,36,9.70
2015,02,18,17,37,9.70
2015,02,18,17,38,9.70
2015,02,18,17,39,9.70
2015,02,18,17,40,9.70
2015,02,18,17,41,9.60
2015,02,18,17,42,9.60
2015,02,18,17,43,9.60
2015,02,18,17,44,9.60
2015,02,18,17,45,9.60
2015,02,18,17,46,9.60
2015,02,18,17,47,9.60
2015,02,18,17,48,9.60
2015,02,18,17,49,9.60
2015,02,18,17,50,9.60
2015,02,18,17,51,9.60
2015,02,18,17,52,9.60
2015,02,18,17,53,9.60
2015,02,18,17,54,9.60
